This demonstration page uses our WeatherBlox Daily Observations layout. Learn more.

Left ArrowRight Arrow

40.92945, -100.16068

Hourly Observations for November 1, 2015

Temp ( °F °C ) Dew Point ( °F °C ) Humidity (%) Winds ( mph kmh ) Pressure ( in mb ) Visibility ( mi km ) Precip ( " mm )
11:15 am 11:15 Sunny 70 21 40 4.7 35 35 SW 8 13 29.80 1009 10 16 N/A
11:35 am 11:35 Sunny 73 22.5 41 5.2 33 33 WSW 12 19 29.77 1008 10 16 N/A
11:55 am 11:55 Sunny 74 23.2 42 5.8 33 33 WNW 9 15 29.74 1007 10 16 N/A
12:15 pm 12:15 Sunny 75 24 42 5.3 30 30 W 12 19 29.74 1007 10 16 N/A
12:35 pm 12:35 Sunny 75 24.1 40 4.6 28 28 W 15 24 29.71 1006 10 16 N/A
12:55 pm 12:55 Sunny 75 24 38 3.3 26 26 W 15 24 29.71 1006 10 16 N/A
1:15 pm 13:15 Sunny 76 24.6 38 3.4 25 25 W 16 26 29.71 1006 10 16 N/A
1:35 pm 13:35 Sunny 78 25.5 37 2.5 22 22 W 16 26 29.68 1005 10 16 N/A
1:55 pm 13:55 Sunny 78 25.3 35 1.6 21 21 SW 15 24 29.65 1004 10 16 N/A
2:15 pm 14:15 Sunny 78 25.7 36 2 21 21 WSW 14 22 29.65 1004 10 16 N/A
2:35 pm 14:35 Sunny 76 24.6 37 2.9 24 24 SW 15 24 29.65 1004 10 16 N/A
2:55 pm 14:55 Sunny 79 26 37 2.6 22 22 SW 12 19 29.65 1004 10 16 N/A
3:15 pm 15:15 Sunny 76 24.5 35 1.5 22 22 SW 14 22 29.65 1004 10 16 N/A
3:35 pm 15:35 Sunny 76 24.2 36 2 23 23 WSW 7 11 29.68 1005 10 16 N/A
3:55 pm 15:55 Sunny 76 24.5 39 4.1 27 27 WNW 8 13 29.65 1004 10 16 N/A
4:15 pm 16:15 Sunny 75 23.8 39 3.8 27 27 NW 8 13 29.68 1005 10 16 N/A
4:35 pm 16:35 Sunny 74 23.2 41 5.2 31 31 WNW 3 6 29.68 1005 10 16 N/A
4:55 pm 16:55 Sunny 73 23 41 4.8 31 31 N N/A 29.68 1005 10 16 N/A
5:15 pm 17:15 Sunny 72 22 40 4.6 32 32 N N/A 29.68 1005 10 16 N/A
5:35 pm 17:35 Sunny 65 18.2 44 6.6 47 47 S 3 6 29.71 1006 10 16 N/A
5:55 pm 17:55 Clear 55 12.9 39 4 55 55 SW 5 7 29.80 1009 10 16 N/A
6:15 pm 18:15 Clear 61 16 40 4.4 46 46 SSW 6 9 29.74 1007 7 11 N/A
6:35 pm 18:35 Clear 57 13.8 40 4.6 54 54 SSW 10 17 29.77 1008 10 16 N/A
6:55 pm 18:55 Clear 57 13.9 40 4.5 53 53 SSW 7 11 29.77 1008 10 16 N/A
7:15 pm 19:15 Clear 56 13.6 39 3.8 52 52 SSW 3 6 29.77 1008 10 16 N/A
7:35 pm 19:35 Clear 56 13.6 38 3.5 51 51 S 5 7 29.77 1008 10 16 N/A
7:55 pm 19:55 Clear 54 12.2 39 4.1 58 58 SSW 9 15 29.80 1009 10 16 N/A
8:15 pm 20:15 Clear 59 15.2 41 5 51 51 SSW 7 11 29.77 1008 10 16 N/A
8:35 pm 20:35 Clear 57 14.1 40 4.7 53 53 SSW 5 7 29.80 1009 10 16 N/A
8:55 pm 20:55 Clear 59 14.8 42 5.3 53 53 SW 8 13 29.77 1008 10 16 N/A
9:15 pm 21:15 Clear 60 15.6 43 6 53 53 SW 10 17 29.77 1008 10 16 N/A
9:35 pm 21:35 Clear 60 15.7 43 6.2 53 53 WSW 9 15 29.74 1007 10 16 N/A
9:55 pm 21:55 Clear 60 15.5 44 6.5 55 55 WSW 8 13 29.77 1008 10 16 N/A
10:15 pm 22:15 Clear 59 15 44 6.6 57 57 WSW 7 11 29.77 1008 10 16 N/A
10:35 pm 22:35 Clear 58 14.4 44 6.6 60 60 WSW 7 11 29.80 1009 10 16 N/A
10:55 pm 22:55 Clear 57 14 44 6.8 62 62 WSW 8 13 29.80 1009 10 16 N/A
11:15 pm 23:15 Clear 59 15 44 6.8 58 58 WSW 9 15 29.77 1008 10 16 N/A
11:35 pm 23:35 Clear 57 14 44 6.7 62 62 WSW 8 13 29.80 1009 10 16 N/A
11:55 pm 23:55 Clear 57 14.1 44 6.8 62 62 SW 12 19 29.80 1009 10 16 N/A

Powered by AerisWeather